Location: Vibo Valentia
(38.6670°N, 16.1000°E)
Time: 14:25:51
(UTC+01:00)

STARLINK-1353 - Pass Details

Date: 03 October 2020
Orbit: 530 x 533 km, 53.0° (Epoch: 27 October)

Event Time Altitude Azimuth Distance (km) Brightness Sun altitude
Exits shadow 03:52:55 11° 35° (NE) 1,720 6.7 -35.1°
Drops below altitude 10° 03:53:05 10° 36° (NE) 1,784 6.9 -35.1°
Sets 03:55:26 0° 44° (NE) 2,678 8.0 -34.7°
